{"data":{"norad_id":68400,"epoch":"2026-05-25T03:37:13.471104Z","epoch_age_seconds":61479,"freshness":"FRESH","line1":"1 68400U 26063W   26145.15085036  .00019594  00000+0  60733-3 0  9990","line2":"2 68400  97.2858 287.7240 0001025  61.0065 299.1280 15.33464171  9617","mean_motion":15.33464171,"eccentricity":0.0001025,"inclination_deg":97.2858,"raan_deg":287.724,"arg_perigee_deg":61.0065,"mean_anomaly_deg":299.128,"bstar":0.00060733,"rev_number":961,"period_min":93.905030664065,"perigee_km":464.78466429292,"apogee_km":466.18760703573,"semimajor_km":6843.6231356643,"source":"CELESTRAK","updated_at":"2026-05-25T13:38:21.950937Z"}}